Location: Vista Encantada
(35.1109°N, 106.5681°W)
Time: 15:40:46
(UTC+00:00)

Tiangong - Visible Passes

Search period start: 20 September 2021 00:00
Search period end: 30 September 2021 00:00
Orbit: 380 x 386 km, 41.5° (Epoch: 18 September)

Date Brightness Start Highest point End Pass type
(mag) Time Alt. Az. Time Alt. Az. Time Alt. Az.
22 Sep 3.5 12:25:05 10° SSW 12:27:24 19° SE 12:29:44 10° E visible
24 Sep 2.4 12:00:13 12° SW 12:02:51 35° SSE 12:05:46 10° E visible
25 Sep 3.5 11:02:47 18° SE 11:02:47 18° SE 11:04:34 10° E visible
26 Sep 1.2 11:37:21 48° SW 11:38:02 67° SSE 11:41:09 10° ENE visible
27 Sep 4.3 10:39:36 14° E 10:39:36 14° E 10:40:08 10° E visible
27 Sep 1.7 12:11:45 16° W 12:13:58 42° NNW 12:17:00 10° NE visible
28 Sep 2.2 11:13:51 42° NE 11:13:51 42° NE 11:16:07 10° ENE visible
29 Sep 2.3 11:47:58 26° NW 11:48:52 31° NNW 11:51:43 10° NE visible
